Home   Weather   Olsztyn   Past weeks

Flag for Poland Past Weather in Olsztyn, Poland — Yesterday and Last 2 Weeks

Now
42 °F

Quite cool.


Feels Like: 38 °F
Forecast: 41 / 47 °F
Wind: 7 mph from Southeast

Location: Ketrzyn

Current Time: Feb 27, 2017 at 10:07:58 pm

Latest Report: Feb 27, 2017 at 9:00 pm


Visibility: 8 mi

Pressure: 29.69 "Hg

Humidity: 83%

Dew Point: 37 °F

Location of OlsztynLocation

Past Weather in Olsztyn — Graph

°F

Olsztyn Temperature Yesterday

Maximum temperature yesterday: 41 °F (at 10:00 pm)
Minimum temperature yesterday: 32 °F (at 1:00 am)
Average temperature yesterday: 37 °F

High & Low Weather Summary for the Past Weeks

 TemperatureHumidityPressure
High49 °F (Feb 27, 4:00 pm)100% (Feb 15, 5:00 am)30.78 "Hg (Feb 15, 5:00 am)
Low14 °F (Feb 13, 6:00 pm)52% (Feb 25, 3:00 pm)28.97 "Hg (Feb 24, 2:00 am)
Average34 °F90%29.93 "Hg
* Reported Feb 12 8:00 pm — Feb 27 8:00 pm, Olsztyn, Weather by CustomWeather, © 2017

Note: Actual official high and low records may vary slightly from our data, if they occured in-between our weather recording intervals... More about our weather records

Advertising

Olsztyn Weather History for the Previous 24 Hours

Scroll right to see more
 ConditionsComfort  
Time TempWeatherWind HumidityBarometerVisibility
8:00 pm
Mon, Feb 27
43 °FQuite cool.8 mph84%29.70 "Hg9 mi
7:00 pm44 °FQuite cool.6 mph82%29.73 "Hg12 mi
6:00 pm46 °FCool.6 mph80%29.75 "Hg11 mi
5:00 pm48 °FCool.7 mph78%29.75 "Hg12 mi
4:00 pm49 °FCool.6 mph79%29.76 "Hg14 mi
3:00 pm49 °FCool.8 mph83%29.77 "Hg11 mi
2:00 pm48 °FCool.3 mph86%29.79 "Hg10 mi
1:00 pm46 °FCool.5 mph90%29.81 "Hg7 mi
12:00 pm45 °FFog.5 mph91%29.82 "Hg6 mi
11:00 am44 °FFog.5 mph93%29.83 "Hg5 mi
10:00 am43 °FFog.6 mph93%29.83 "Hg4 mi
9:00 am43 °FFog.5 mph96%29.83 "Hg3 mi
8:00 am42 °FFog.3 mph97%29.81 "Hg2 mi
7:00 am42 °FFog.3 mph96%29.81 "Hg2 mi
6:00 am42 °FFog.5 mph95%29.80 "Hg4 mi
5:00 am42 °FFog.5 mph94%29.79 "Hg3 mi
4:00 am42 °FFog.6 mph94%29.78 "Hg4 mi
3:00 am42 °FFog.6 mph93%29.77 "Hg6 mi
2:00 am42 °FFog.6 mph94%29.76 "Hg5 mi
1:00 am42 °FFog.8 mph94%29.75 "Hg4 mi
12:00 am42 °FFog.6 mph94%29.74 "Hg5 mi
11:00 pm
Sun, Feb 26
41 °FFog.7 mph94%29.74 "Hg2 mi
10:00 pm41 °FQuite cool.7 mph92%29.73 "Hg9 mi
Weather by CustomWeather, © 2017

See weather overviewHow to use our weather pages